sat.trackr.live / text

‹ back to catalog

SZ-20 MODULE

NORAD 67481 · 2025-082C

PAYLOAD ACTIVE UNKNOWN

§ Identity

Operator
Country
PRC
Launch date
2025-04-24
Launch site
JSC
Launch vehicle
Mass (kg)
RCS (m²)

External: N2YO · Heavens-Above · Gunter

§ Orbital elements

Epoch: 2026-05-25T03:45:29.148768Z

Period
91.85 min
Inclination
41.4768°
Eccentricity
0.0011372
Mean motion
15.67794810 rev/d
Perigee alt
357.5 km
Apogee alt
372.9 km
Semi-major
6,743.3 km
B*
2.0642e-4
RAAN
98.0488°
Arg perigee
194.9663°
Mean anomaly
165.0844°
Rev number
28,961

§ Raw data

SZ-20 MODULE1 67481U 25082C   26145.15658737  .00023141  00000+0  20642-3 0  99902 67481  41.4768  98.0488 0011372 194.9663 165.0844 15.67794810289619

JSON: /api/v1/satellites/67481 · /tle

For live sub-satellite position, see the globe view (requires WebGL).

§ Visibility from observer

Set your observer location to see the next 7 days of passes ≥ 10°. The values pass through the URL so the page stays shareable.

No JS? Fill the form by hand. The geolocation button needs JavaScript.